Regional Weather Roundup
Issued by NWS State College, PA

Home | Current Version | Previous Version | Text Only | Print | Product List | Glossary On
Versions: 1 2 3 4 5 6 7 8 9 10 11 12 13 14 15 16 17 18 19 20 21 22 23 24 25 26 27 28 29 30 31 32 33 34 35 36 37 38 39 40 41 42 43 44 45 46 47 48 49 50
620
ASUS41 KCTP 272010
RWRCTP

REGIONAL WEATHER ROUNDUP
NATIONAL WEATHER SERVICE STATE COLLEGE PA
400 PM EDT FRI MAY 27 2016

Note: "fair" indicates few or no clouds below 12,000 feet with no
significant weather and/or obstructions to visibility.

* = STATION THAT DOES NOT REPORT PRECIPITATION /E.G. RAIN...SNOW...ETC/
    THUNDER OR FOG.

PAZ002>004-007>009-013>016-020>023-029>032-272100-
WESTERN PENNSYLVANIA

CITY           SKY/WX    TMP DP  RH WIND       PRES   REMARKS
ERIE           SUNNY     76  63  64 NW8       30.03F
MEADVILLE      PTSUNNY   80  61  52 S7        30.05S
FRANKLIN*      MOSUNNY   82  61  47 SW13      30.08F
NEW CASTLE     MOCLDY    85  63  47 VRB5G16   30.04F
BEAVER COUNTY  PTSUNNY   82  63  51 CALM      30.05F
BUTLER*        PTSUNNY   82  63  51 SW13G18   30.08F
PITTSBURGH INT PTSUNNY   86  60  41 VRB6      30.04F
PITTSBURGH     MOSUNNY   84  60  44 S9        30.05F
INDIANA*       MOSUNNY   86  66  51 VRB5G17   30.09F
LATROBE        MOSUNNY   84  64  51 SW10      30.07F
WASHINGTON CO* MOSUNNY   84  63  48 SW7       30.07F
$$

PAZ004>006-010>012-017>019-024>028-033>037-041-042-045-046-049>053-272100-
CENTRAL PENNSYLVANIA

CITY           SKY/WX    TMP DP  RH WIND       PRES   REMARKS
BRADFORD       MOSUNNY   82  57  42 SW14G20   30.07F
DUBOIS         MOSUNNY   81  61  50 SW14G22   30.07F
CLEARFIELD     MOSUNNY   83  60  45 SW10      30.06F
JOHNSTOWN      CLOUDY    82  56  40 W9        30.11F
ALTOONA        PTSUNNY   76  65  68 E7        30.09S
STATE COLLEGE  MOSUNNY   84  64  51 S7        30.05F
WILLIAMSPORT   MOSUNNY   87  64  46 S12G18    29.99F
SELINSGROVE    SUNNY     90  65  43 SW6G17    30.02F
FT INDIANTOWN  PTSUNNY   87  66  50 SW8       30.02F
CAPITAL CITY   MOSUNNY   88  65  46 SW10      30.02F
HARRISBURG     CLOUDY    89  66  46 S8        30.01F
YORK           PTSUNNY   87  67  51 SW8       30.04F
$$

PAZ038>040-043-044-047-048-054-055-060>062-067>071-272100-
EASTERN PENNSYLVANIA

CITY           SKY/WX    TMP DP  RH WIND       PRES   REMARKS
SCRANTON       SUNNY     88  63  43 W13       30.02S
MOUNT POCONO   MOSUNNY   81  63  54 SW14G21   30.08S
ALLENTOWN      MOSUNNY   89  66  46 SW13G21   30.02S
QUAKERTOWN*    MOCLDY    86  66  51 SW6       30.04S
READING        CLOUDY    90  65  43 W12G17    30.02S
LANCASTER      MOSUNNY   87  66  49 SW8       30.03S
COATESVILLE    PTCLDY    82  68  61 VRB5      30.06F
POTTSTOWN      MOSUNNY   86  65  49 SW7       30.04F
BLUE BELL      MOSUNNY   86  66  51 SW10      30.03S
DOYLESTOWN     MOSUNNY   88  63  43 SW8G17    30.02S
WILLOW GROVE   NOT AVBL
NORTH PHILA    MOSUNNY   90  67  46 SW10G17   30.03F
PHILADELPHIA   MOSUNNY   89  64  43 SW13      30.04R
$$




USA.gov is the U.S. government's official web portal to all federal, state and local government web resources and services.